Rifle, CO

5:40 AM MST on December 06, 2016 (GMT -0700)
Garfield County Regional

Weather History for KRIL - September, 2014

Change the Weather History Date:

Tuesday, September 30, 2014

  Actual Average Record
Temperature  
Mean Temperature 51 °F 56 °F  
Max Temperature 60 °F 72 °F 87 °F (1957)
Min Temperature 41 °F 39 °F 22 °F (1985)
Degree Days  
Heating Degree Days 14 10  
Month to date heating degree days 69 139  
Since 1 July heating degree days 86 146  
Cooling Degree Days 0 0  
Month to date cooling degree days 26 25  
Year to date cooling degree days 555 541  
Moisture  
Dew Point 41 °F    
Average Humidity 70    
Maximum Humidity 93    
Minimum Humidity 47    
Precipitation  
Precipitation 0.02 in 0.04 in 0.54 in (1940)
Month to date precipitation 2.18 1.50  
Year to date precipitation 10.31 10.47  
Sea Level Pressure  
Sea Level Pressure 29.93 in    
Wind  
Wind Speed 6 mph (South)    
Max Wind Speed 23 mph    
Max Gust Speed 29 mph    
Visibility 10 miles    
Events Rain , Thunderstorm    
T = Trace of Precipitation, MM = Missing Value Source: NWS Daily Summary

Daily Weather History Graph

Daily Weather History Graph

Search for Another Location

Airport or City:

Trip Planner

Search our weather history database for the weather conditions in past years. The results will help you decide how hot, cold, wet, or windy it might be!

Date:

Astronomy

Sep. 30, 2014 Rise Set
Actual Time 7:06 AM MDT 6:54 PM MDT
Civil Twilight 6:39 AM MDT 7:21 PM MDT
Nautical Twilight 6:08 AM MDT 7:52 PM MDT
Astronomical Twilight 5:36 AM MDT 8:24 PM MDT
Moon 1:15 PM MDT (9/30) 11:29 PM MDT (9/30)
Length of Visible Light 12h 42m
Length of Day
11h 48m
Waxing Crescent, 38% of the Moon is Illuminated
Sep 30
Waxing Crescent
Oct 1
First Quarter
Oct 8
Full
Oct 15
Last Quarter
Oct 23
New

Hourly Weather History & Observations

Time (MDT) Temp. Windchill Dew Point Humidity Pressure Visibility Wind Dir Wind Speed Gust Speed Precip Events Conditions
12:53 AM 46.9 °F - 44.1 °F 90% 29.96 in 10.0 mi WNW 3.5 mph - N/A   Overcast
1:53 AM 46.9 °F - 43.0 °F 86% 29.95 in 10.0 mi ESE 3.5 mph - N/A   Overcast
2:53 AM 44.1 °F 42.5 °F 41.0 °F 89% 29.98 in 10.0 mi South 3.5 mph - N/A   Mostly Cloudy
3:53 AM 44.1 °F 42.5 °F 41.0 °F 89% 29.97 in 10.0 mi ESE 3.5 mph - N/A   Overcast
4:53 AM 43.0 °F 41.3 °F 39.0 °F 86% 29.97 in 10.0 mi SE 3.5 mph - N/A   Partly Cloudy
5:53 AM 41.0 °F 39.0 °F 39.0 °F 93% 29.98 in 10.0 mi South 3.5 mph - N/A   Scattered Clouds
6:53 AM 42.1 °F 40.2 °F 39.9 °F 92% 29.97 in 10.0 mi SSW 3.5 mph - N/A   Overcast
7:53 AM 42.1 °F - 39.9 °F 92% 29.98 in 10.0 mi Calm Calm - N/A   Overcast
8:53 AM 44.1 °F - 39.9 °F 85% 29.98 in 10.0 mi Calm Calm - 0.00 in Rain Light Rain
9:53 AM 45.0 °F 43.5 °F 42.1 °F 90% 29.97 in 10.0 mi ENE 3.5 mph - 0.01 in   Overcast
10:53 AM 46.0 °F - 42.1 °F 86% 29.97 in 10.0 mi Calm Calm - 0.00 in   Overcast
11:53 AM 51.1 °F - 44.1 °F 77% 29.94 in 10.0 mi East 3.5 mph - N/A   Clear
12:53 PM 55.0 °F - 42.1 °F 62% 29.90 in 10.0 mi Calm Calm - N/A   Mostly Cloudy
1:53 PM 57.0 °F - 43.0 °F 59% 29.86 in 10.0 mi North 4.6 mph - N/A   Overcast
2:53 PM 57.0 °F - 43.0 °F 59% 29.86 in 10.0 mi Variable 3.5 mph - N/A   Overcast
3:53 PM 60.1 °F - 41.0 °F 49% 29.83 in 10.0 mi West 15.0 mph - N/A   Mostly Cloudy
4:53 PM 59.0 °F - 39.0 °F 48% 29.82 in 10.0 mi West 18.4 mph 24.2 mph N/A   Mostly Cloudy
5:53 PM 60.1 °F - 41.0 °F 49% 29.82 in 10.0 mi West 16.1 mph - N/A   Clear
6:53 PM 57.0 °F - 39.9 °F 53% 29.84 in 10.0 mi WSW 12.7 mph - N/A   Partly Cloudy
7:33 PM 54.0 °F - 39.9 °F 59% 29.96 in 10.0 mi NW 19.6 mph 23.0 mph N/A Thunderstorm Mostly Cloudy
7:48 PM 51.8 °F - 37.4 °F 58% 29.97 in 10.0 mi NNW 9.2 mph 21.9 mph N/A Thunderstorm Scattered Clouds
7:53 PM 52.0 °F - 37.9 °F 59% 29.90 in 10.0 mi NNW 5.8 mph 20.7 mph N/A   Mostly Cloudy
8:53 PM 48.9 °F - 39.9 °F 71% 29.91 in 10.0 mi SSE 9.2 mph - N/A   Scattered Clouds
9:53 PM 46.0 °F 43.1 °F 39.9 °F 79% 29.92 in 10.0 mi East 5.8 mph - N/A   Clear
10:53 PM 46.9 °F - 44.1 °F 90% 29.99 in 10.0 mi SSE 4.6 mph - N/A   Overcast
11:53 PM 46.9 °F - 42.1 °F 83% 29.90 in 9.0 mi East 5.8 mph - 0.01 in Rain Light Rain